HAZ3652 ZUCK-ZGGG

Flight info

Callsign HAZ3652
Flight time N/A
Altitude 37100
Route VILUS1Z VILUS W180 LIDMA W182 LAGEX G586 SJG B330 GYA GYA8
Aircraft B77W/H-SDE1E2E3FGHIJ2J3J4J5M1RWXY/LB1D1

Departure

Time 2026-04-21 03:06
Airport Chongqing Jiangbei International Airport (ZUCK)

Arrival

Time N/A
Airport Guangzhou Baiyun International Airport (ZGGG)
Time Latitude Longitude Altitude Speed Heading
2026-04-21 02:46 29.71639 106.64958 1384 ft 0 kts 92°
2026-04-21 02:53 29.71640 106.64948 1384 ft 2 kts 92°
2026-04-21 02:53 29.71640 106.64934 1384 ft 0 kts 92°
2026-04-21 02:54 29.71640 106.64920 1384 ft 2 kts 82°
2026-04-21 02:54 29.71636 106.64903 1384 ft 2 kts 62°
2026-04-21 02:54 29.71628 106.64889 1384 ft 2 kts 46°
2026-04-21 02:54 29.71617 106.64878 1384 ft 2 kts 30°
2026-04-21 02:55 29.71603 106.64871 1384 ft 2 kts 14°
2026-04-21 02:55 29.71589 106.64869 1384 ft 0 kts 359°
2026-04-21 02:55 29.71585 106.64869 1384 ft 0 kts 358°
2026-04-21 02:59 29.71587 106.64869 1384 ft 2 kts 358°
2026-04-21 02:59 29.71644 106.64861 1384 ft 12 kts 330°
2026-04-21 02:59 29.71690 106.64748 1384 ft 17 kts 287°
2026-04-21 02:59 29.71788 106.64728 1384 ft 21 kts 16°
2026-04-21 03:00 29.71958 106.64786 1384 ft 27 kts 17°
2026-04-21 03:00 29.72135 106.64848 1384 ft 25 kts 17°
2026-04-21 03:00 29.72296 106.64903 1384 ft 23 kts 17°
2026-04-21 03:00 29.72446 106.64955 1384 ft 21 kts 17°
2026-04-21 03:01 29.72583 106.65002 1384 ft 19 kts 17°
2026-04-21 03:01 29.72709 106.65046 1384 ft 18 kts 17°
2026-04-21 03:01 29.72833 106.65088 1384 ft 18 kts 17°
2026-04-21 03:01 29.72958 106.65131 1384 ft 18 kts 17°
2026-04-21 03:02 29.73082 106.65175 1384 ft 18 kts 17°
2026-04-21 03:02 29.73209 106.65218 1384 ft 18 kts 17°
2026-04-21 03:02 29.73336 106.65262 1384 ft 18 kts 17°
2026-04-21 03:02 29.73460 106.65305 1384 ft 15 kts 17°
2026-04-21 03:03 29.73527 106.65282 1384 ft 9 kts 297°
2026-04-21 03:03 29.73532 106.65267 1384 ft 0 kts 289°
2026-04-21 03:05 29.73547 106.65216 1384 ft 13 kts 288°
2026-04-21 03:05 29.73523 106.65126 1384 ft 14 kts 208°
2026-04-21 03:06 29.73421 106.65087 1384 ft 28 kts 197°
2026-04-21 03:06 29.72913 106.64912 1384 ft 124 kts 197°
2026-04-21 03:06 29.71806 106.64529 1549 ft 196 kts 200°
2026-04-21 03:06 29.70431 106.64033 2433 ft 222 kts 199°
2026-04-21 03:07 29.68995 106.63528 3665 ft 214 kts 195°
2026-04-21 03:07 29.67541 106.63049 4290 ft 228 kts 195°
2026-04-21 03:07 29.65962 106.62515 4875 ft 245 kts 196°
2026-04-21 03:07 29.64255 106.61927 5591 ft 261 kts 197°
2026-04-21 03:08 29.62493 106.61320 6481 ft 269 kts 197°
2026-04-21 03:08 29.60704 106.60704 7574 ft 269 kts 197°
2026-04-21 03:08 29.58910 106.60086 8596 ft 271 kts 198°
2026-04-21 03:08 29.57119 106.59470 9609 ft 272 kts 199°
2026-04-21 03:09 29.55350 106.58816 10503 ft 276 kts 200°
2026-04-21 03:09 29.53439 106.58091 11035 ft 296 kts 200°
2026-04-21 03:09 29.51431 106.57337 11587 ft 314 kts 200°
2026-04-21 03:09 29.49264 106.56644 12127 ft 333 kts 194°
2026-04-21 03:10 29.46855 106.56320 12663 ft 353 kts 184°
2026-04-21 03:10 29.44342 106.56478 13174 ft 373 kts 174°
2026-04-21 03:10 29.41769 106.57179 13676 ft 392 kts 163°
2026-04-21 03:10 29.39222 106.58514 14351 ft 405 kts 152°
2026-04-21 03:11 29.36916 106.60439 15087 ft 416 kts 140°
2026-04-21 03:11 29.34937 106.62864 15827 ft 423 kts 132°
2026-04-21 03:11 29.33041 106.65455 16580 ft 428 kts 132°
2026-04-21 03:11 29.31106 106.68061 17275 ft 433 kts 132°
2026-04-21 03:12 29.29117 106.70699 17978 ft 438 kts 133°
2026-04-21 03:12 29.27117 106.73322 18712 ft 442 kts 133°
2026-04-21 03:12 29.25069 106.75987 19388 ft 447 kts 133°
2026-04-21 03:12 29.23008 106.78651 20057 ft 452 kts 133°
2026-04-21 03:13 29.20896 106.81373 20708 ft 457 kts 133°
2026-04-21 03:13 29.18763 106.84113 21399 ft 460 kts 134°
2026-04-21 03:13 29.16631 106.86844 22050 ft 464 kts 134°
2026-04-21 03:13 29.14421 106.89518 22613 ft 468 kts 140°
2026-04-21 03:14 29.11850 106.91836 23151 ft 470 kts 149°
2026-04-21 03:14 29.09013 106.93635 23733 ft 470 kts 159°
2026-04-21 03:14 29.05902 106.94913 24329 ft 470 kts 168°
2026-04-21 03:14 29.02667 106.95598 24911 ft 470 kts 178°
2026-04-21 03:15 28.99392 106.95714 25508 ft 471 kts 184°
2026-04-21 03:15 28.96115 106.95638 26164 ft 473 kts 185°
2026-04-21 03:15 28.92811 106.95561 26789 ft 477 kts 185°
2026-04-21 03:15 28.89460 106.95492 27343 ft 483 kts 185°
2026-04-21 03:16 28.88061 106.95465 27555 ft 485 kts 185°
2026-04-21 03:16 28.84712 106.95407 28151 ft 489 kts 185°
2026-04-21 03:16 28.82107 106.95366 28630 ft 492 kts 185°
2026-04-21 03:17 28.80684 106.95344 28885 ft 494 kts 185°
2026-04-21 03:17 28.79072 106.95320 29173 ft 495 kts 185°